LUDI TANCE-4 01A

Last updated on Thu Jul 09 2026 00:03:08 GMT+0000 (Coordinated Universal Time)

1 57624U 23120A 26189.01813208 -.00000151 00000+0 00000+0 0 9997 2 57624 15.0911 193.4584 0001670 26.4984 161.9389 1.00265090 10757
UTC large
Height (km)
Speed (km/s)
/
Latitude / Longitude
Inclination (degrees)
Orbital Period (minutes)
Azimuth
Elevation
Range (km)
Doppler Factor

Next 0 passes for location: London (51.5072 / 0.1276)

No passes found over London.
LUDI TANCE-4 01A